Retour au catalogue

STARLINK-32688

ActifCommunicationsVLEO
NORAD 62193·PAYLOAD·🇺🇸 United States

Lancé Dec 4, 2024 depuis Cape Canaveral Space Force Station

Loading…

Prochains Passages (prochaines 24 heures)

TLE

FraisSource: CelesTrak SupGP

Époque: Sep 15, 2026, 02:41 UTC

1 62193C 24229B   26258.11229167  .00004893  00000+0  17725-3 0  2588
2 62193  43.0016 281.0250 0001606 265.6243 336.4741 15.27572785    14

Suivez STARLINK-32688 en temps réel avec AllMySat

Download on the App Store